contact:dominique.lefevre@mio.osupytheas.fr, maurice.libes@osupytheas.fr, didier.mallarino@osupytheas.fr
Project:EMSO http://www.emso-fr.org/EMSO-France
Depth: 2436.0 m
Title:EMSO Ligure Ouest : Data MII capteur MICROCAT
DateTime_Computer,Latitude,Longitude,Temperature,Conductivity,Pressure,DateTime_Instrument
DateTime_Computer,Latitude,Longitude,degC,S m-1,dbar,DateTime_Instrument
2022-03-15T00:02:08Z,42.805,6.029,13.3004,4.60034,2470.46,2022-3-15T02:03:44Z
2022-03-15T00:05:11Z,42.805,6.029,13.3001,4.60035,2470.427,2022-3-15T02:06:47Z
2022-03-15T00:08:14Z,42.805,6.029,13.3000,4.60034,2470.45,2022-3-15T02:09:50Z
2022-03-15T00:11:17Z,42.805,6.029,13.3000,4.60033,2470.45,2022-3-15T02:12:53Z
2022-03-15T00:14:21Z,42.805,6.029,13.3002,4.60035,2470.474,2022-3-15T02:15:56Z
2022-03-15T00:17:24Z,42.805,6.029,13.3001,4.60036,2470.413,2022-3-15T02:18:59Z
2022-03-15T00:20:27Z,42.805,6.029,13.3003,4.60035,2470.413,2022-3-15T02:22:03Z
2022-03-15T00:23:30Z,42.805,6.029,13.3000,4.60036,2470.45,2022-3-15T02:25:06Z
2022-03-15T00:26:33Z,42.805,6.029,13.3000,4.60036,2470.437,2022-3-15T02:28:09Z
2022-03-15T00:29:36Z,42.805,6.029,13.3000,4.60034,2470.437,2022-3-15T02:31:12Z
2022-03-15T00:32:39Z,42.805,6.029,13.3002,4.60034,2470.474,2022-3-15T02:34:15Z
2022-03-15T00:35:42Z,42.805,6.029,13.3002,4.60038,2470.474,2022-3-15T02:37:18Z
2022-03-15T00:38:46Z,42.805,6.029,13.3002,4.60037,2470.437,2022-3-15T02:40:21Z
2022-03-15T00:41:49Z,42.805,6.029,13.3004,4.60035,2470.437,2022-3-15T02:43:24Z
2022-03-15T00:44:52Z,42.805,6.029,13.3005,4.60037,2470.413,2022-3-15T02:46:28Z
2022-03-15T00:47:55Z,42.805,6.029,13.3001,4.60034,2470.45,2022-3-15T02:49:31Z
2022-03-15T00:50:58Z,42.805,6.029,13.2999,4.60033,2470.45,2022-3-15T02:52:34Z
2022-03-15T00:54:01Z,42.805,6.029,13.3002,4.60037,2470.437,2022-3-15T02:55:37Z
2022-03-15T00:57:04Z,42.805,6.029,13.3004,4.60035,2470.474,2022-3-15T02:58:40Z
2022-03-15T01:00:07Z,42.805,6.029,13.2999,4.60035,2470.46,2022-3-15T03:01:43Z
2022-03-15T01:03:11Z,42.805,6.029,13.3001,4.60037,2470.507,2022-3-15T03:04:46Z
2022-03-15T01:06:14Z,42.805,6.029,13.3004,4.60035,2470.46,2022-3-15T03:07:49Z
2022-03-15T01:09:17Z,42.805,6.029,13.3000,4.60034,2470.437,2022-3-15T03:10:53Z
2022-03-15T01:12:20Z,42.805,6.029,13.3002,4.60035,2470.46,2022-3-15T03:13:56Z
2022-03-15T01:15:23Z,42.805,6.029,13.3003,4.60036,2470.437,2022-3-15T03:16:59Z
2022-03-15T01:18:26Z,42.805,6.029,13.3001,4.60035,2470.45,2022-3-15T03:20:02Z
2022-03-15T01:21:29Z,42.805,6.029,13.3003,4.60033,2470.46,2022-3-15T03:23:05Z
2022-03-15T01:24:32Z,42.805,6.029,13.3002,4.60035,2470.46,2022-3-15T03:26:08Z
2022-03-15T01:27:35Z,42.805,6.029,13.2999,4.60036,2470.483,2022-3-15T03:29:11Z
2022-03-15T01:30:39Z,42.805,6.029,13.3004,4.60035,2470.474,2022-3-15T03:32:14Z
2022-03-15T01:33:42Z,42.805,6.029,13.3004,4.60037,2470.437,2022-3-15T03:35:18Z
2022-03-15T01:36:45Z,42.805,6.029,13.3003,4.60037,2470.46,2022-3-15T03:38:21Z
2022-03-15T01:39:48Z,42.805,6.029,13.3003,4.60036,2470.474,2022-3-15T03:41:24Z
2022-03-15T01:42:51Z,42.805,6.029,13.3004,4.60034,2470.483,2022-3-15T03:44:27Z
2022-03-15T01:45:54Z,42.805,6.029,13.3000,4.60041,2470.46,2022-3-15T03:47:30Z
2022-03-15T01:48:57Z,42.805,6.029,13.3002,4.60037,2470.46,2022-3-15T03:50:33Z
2022-03-15T01:52:00Z,42.805,6.029,13.3004,4.60036,2470.483,2022-3-15T03:53:36Z
2022-03-15T01:55:04Z,42.805,6.029,13.3002,4.60036,2470.46,2022-3-15T03:56:39Z
2022-03-15T01:58:07Z,42.805,6.029,13.3002,4.60037,2470.483,2022-3-15T03:59:43Z
2022-03-15T02:01:10Z,42.805,6.029,13.3004,4.60036,2470.497,2022-3-15T04:02:46Z
2022-03-15T02:04:13Z,42.805,6.029,13.3005,4.60034,2470.497,2022-3-15T04:05:49Z
2022-03-15T02:07:16Z,42.805,6.029,13.3005,4.60037,2470.497,2022-3-15T04:08:52Z
2022-03-15T02:10:19Z,42.805,6.029,13.3000,4.60036,2470.474,2022-3-15T04:11:55Z
2022-03-15T02:13:22Z,42.805,6.029,13.3004,4.60037,2470.474,2022-3-15T04:14:58Z
2022-03-15T02:16:25Z,42.805,6.029,13.3004,4.60037,2470.52,2022-3-15T04:18:01Z
2022-03-15T02:19:29Z,42.805,6.029,13.3003,4.60037,2470.52,2022-3-15T04:21:04Z
2022-03-15T02:22:32Z,42.805,6.029,13.3008,4.60036,2470.483,2022-3-15T04:24:08Z
2022-03-15T02:25:35Z,42.805,6.029,13.3002,4.60036,2470.507,2022-3-15T04:27:11Z
2022-03-15T02:28:38Z,42.805,6.029,13.3004,4.60037,2470.52,2022-3-15T04:30:14Z
2022-03-15T02:31:41Z,42.805,6.029,13.3005,4.60036,2470.497,2022-3-15T04:33:17Z
2022-03-15T02:34:44Z,42.805,6.029,13.3004,4.60036,2470.507,2022-3-15T04:36:20Z
2022-03-15T02:37:47Z,42.805,6.029,13.2998,4.60038,2470.507,2022-3-15T04:39:23Z
2022-03-15T02:40:50Z,42.805,6.029,13.3004,4.60038,2470.52,2022-3-15T04:42:26Z
2022-03-15T02:43:54Z,42.805,6.029,13.3006,4.60039,2470.52,2022-3-15T04:45:29Z
2022-03-15T02:46:57Z,42.805,6.029,13.3004,4.60037,2470.507,2022-3-15T04:48:33Z
2022-03-15T02:50:00Z,42.805,6.029,13.3000,4.60038,2470.53,2022-3-15T04:51:36Z
2022-03-15T02:53:03Z,42.805,6.029,13.3006,4.60037,2470.483,2022-3-15T04:54:39Z
2022-03-15T02:56:06Z,42.805,6.029,13.3004,4.60036,2470.507,2022-3-15T04:57:42Z
2022-03-15T02:59:09Z,42.805,6.029,13.3007,4.60037,2470.53,2022-3-15T05:00:45Z
2022-03-15T03:02:12Z,42.805,6.029,13.3005,4.60039,2470.544,2022-3-15T05:03:48Z
2022-03-15T03:05:15Z,42.805,6.029,13.3004,4.60040,2470.52,2022-3-15T05:06:51Z
2022-03-15T03:08:19Z,42.805,6.029,13.3006,4.60040,2470.53,2022-3-15T05:09:54Z
2022-03-15T03:11:22Z,42.805,6.029,13.3006,4.60039,2470.53,2022-3-15T05:12:58Z
2022-03-15T03:14:25Z,42.805,6.029,13.3001,4.60041,2470.567,2022-3-15T05:16:01Z
2022-03-15T03:17:28Z,42.805,6.029,13.3004,4.60038,2470.553,2022-3-15T05:19:04Z
2022-03-15T03:20:31Z,42.805,6.029,13.3004,4.60039,2470.544,2022-3-15T05:22:07Z
2022-03-15T03:23:34Z,42.805,6.029,13.3004,4.60039,2470.567,2022-3-15T05:25:10Z
2022-03-15T03:26:37Z,42.805,6.029,13.3004,4.60041,2470.53,2022-3-15T05:28:13Z
2022-03-15T03:29:40Z,42.805,6.029,13.3007,4.60038,2470.553,2022-3-15T05:31:16Z
2022-03-15T03:32:44Z,42.805,6.029,13.3006,4.60039,2470.567,2022-3-15T05:34:19Z
2022-03-15T03:35:47Z,42.805,6.029,13.3003,4.60039,2470.553,2022-3-15T05:37:23Z
2022-03-15T03:38:50Z,42.805,6.029,13.3009,4.60037,2470.553,2022-3-15T05:40:26Z
2022-03-15T03:41:53Z,42.805,6.029,13.3005,4.60040,2470.567,2022-3-15T05:43:29Z
2022-03-15T03:44:56Z,42.805,6.029,13.3004,4.60039,2470.567,2022-3-15T05:46:32Z
2022-03-15T03:47:59Z,42.805,6.029,13.3007,4.60040,2470.53,2022-3-15T05:49:35Z
2022-03-15T03:51:02Z,42.805,6.029,13.3005,4.60041,2470.591,2022-3-15T05:52:38Z
2022-03-15T03:54:05Z,42.805,6.029,13.3002,4.60040,2470.591,2022-3-15T05:55:41Z
2022-03-15T03:57:09Z,42.805,6.029,13.3009,4.60037,2470.544,2022-3-15T05:58:44Z
2022-03-15T04:00:12Z,42.805,6.029,13.3003,4.60039,2470.591,2022-3-15T06:01:48Z
2022-03-15T04:03:15Z,42.805,6.029,13.3003,4.60039,2470.637,2022-3-15T06:04:51Z
2022-03-15T04:06:18Z,42.805,6.029,13.3004,4.60040,2470.563,2022-3-15T06:07:54Z
2022-03-15T04:09:21Z,42.805,6.029,13.3008,4.60039,2470.591,2022-3-15T06:10:57Z
2022-03-15T04:12:24Z,42.805,6.029,13.3004,4.60039,2470.577,2022-3-15T06:14:00Z
2022-03-15T04:15:27Z,42.805,6.029,13.3004,4.60041,2470.591,2022-3-15T06:17:03Z
2022-03-15T04:18:30Z,42.805,6.029,13.3007,4.60041,2470.577,2022-3-15T06:20:06Z
2022-03-15T04:21:33Z,42.805,6.029,13.3005,4.60039,2470.591,2022-3-15T06:23:09Z
2022-03-15T04:24:37Z,42.805,6.029,13.3003,4.60039,2470.591,2022-3-15T06:26:12Z
2022-03-15T04:27:40Z,42.805,6.029,13.3005,4.60039,2470.591,2022-3-15T06:29:16Z
2022-03-15T04:30:43Z,42.805,6.029,13.3008,4.60040,2470.567,2022-3-15T06:32:19Z
2022-03-15T04:33:46Z,42.805,6.029,13.3004,4.60040,2470.591,2022-3-15T06:35:22Z
2022-03-15T04:36:49Z,42.805,6.029,13.3006,4.60039,2470.614,2022-3-15T06:38:25Z
2022-03-15T04:39:52Z,42.805,6.029,13.3006,4.60039,2470.614,2022-3-15T06:41:28Z
2022-03-15T04:42:55Z,42.805,6.029,13.3005,4.60041,2470.6,2022-3-15T06:44:31Z
2022-03-15T04:45:58Z,42.805,6.029,13.3004,4.60039,2470.577,2022-3-15T06:47:34Z
2022-03-15T04:49:02Z,42.805,6.029,13.3004,4.60039,2470.614,2022-3-15T06:50:37Z
2022-03-15T04:52:05Z,42.805,6.029,13.3007,4.60041,2470.637,2022-3-15T06:53:41Z
2022-03-15T04:55:08Z,42.805,6.029,13.3010,4.60039,2470.6,2022-3-15T06:56:44Z
2022-03-15T04:58:11Z,42.805,6.029,13.3005,4.60039,2470.624,2022-3-15T06:59:47Z
2022-03-15T05:01:14Z,42.805,6.029,13.3009,4.60039,2470.646,2022-3-15T07:02:50Z
2022-03-15T05:04:17Z,42.805,6.029,13.3006,4.60040,2470.637,2022-3-15T07:05:53Z
2022-03-15T05:07:20Z,42.805,6.029,13.3005,4.60039,2470.6,2022-3-15T07:08:56Z
2022-03-15T05:10:23Z,42.805,6.029,13.3005,4.60039,2470.577,2022-3-15T07:11:59Z
2022-03-15T05:13:27Z,42.805,6.029,13.3008,4.60039,2470.6,2022-3-15T07:15:02Z
2022-03-15T05:16:30Z,42.805,6.029,13.3004,4.60040,2470.577,2022-3-15T07:18:06Z
2022-03-15T05:19:33Z,42.805,6.029,13.3006,4.60041,2470.6,2022-3-15T07:21:09Z
2022-03-15T05:22:36Z,42.805,6.029,13.3006,4.60039,2470.624,2022-3-15T07:24:12Z
2022-03-15T05:25:39Z,42.805,6.029,13.3005,4.60040,2470.6,2022-3-15T07:27:15Z
2022-03-15T05:28:42Z,42.805,6.029,13.3006,4.60040,2470.637,2022-3-15T07:30:18Z
2022-03-15T05:31:45Z,42.805,6.029,13.3006,4.60042,2470.586,2022-3-15T07:33:21Z
2022-03-15T05:34:48Z,42.805,6.029,13.3008,4.60040,2470.614,2022-3-15T07:36:24Z
2022-03-15T05:37:52Z,42.805,6.029,13.3005,4.60039,2470.624,2022-3-15T07:39:27Z
2022-03-15T05:40:55Z,42.805,6.029,13.3008,4.60039,2470.624,2022-3-15T07:42:31Z
2022-03-15T05:43:58Z,42.805,6.029,13.3006,4.60039,2470.624,2022-3-15T07:45:34Z
2022-03-15T05:47:01Z,42.805,6.029,13.3005,4.60040,2470.624,2022-3-15T07:48:37Z
2022-03-15T05:50:04Z,42.805,6.029,13.3007,4.60041,2470.614,2022-3-15T07:51:40Z
2022-03-15T05:53:07Z,42.805,6.029,13.3006,4.60040,2470.624,2022-3-15T07:54:43Z
2022-03-15T05:56:10Z,42.805,6.029,13.3006,4.60041,2470.6,2022-3-15T07:57:46Z
2022-03-15T05:59:13Z,42.805,6.029,13.3005,4.60040,2470.614,2022-3-15T08:00:49Z
2022-03-15T06:02:17Z,42.805,6.029,13.3006,4.60042,2470.624,2022-3-15T08:03:52Z
2022-03-15T06:05:20Z,42.805,6.029,13.3007,4.60041,2470.646,2022-3-15T08:06:56Z
2022-03-15T06:08:23Z,42.805,6.029,13.3005,4.60040,2470.6,2022-3-15T08:09:59Z
2022-03-15T06:11:26Z,42.805,6.029,13.3004,4.60040,2470.637,2022-3-15T08:13:02Z
2022-03-15T06:14:29Z,42.805,6.029,13.3009,4.60042,2470.614,2022-3-15T08:16:05Z
2022-03-15T06:17:32Z,42.805,6.029,13.3006,4.60041,2470.624,2022-3-15T08:19:08Z
2022-03-15T06:20:35Z,42.805,6.029,13.3010,4.60041,2470.624,2022-3-15T08:22:11Z
2022-03-15T06:23:38Z,42.805,6.029,13.3007,4.60040,2470.614,2022-3-15T08:25:14Z
2022-03-15T06:26:42Z,42.805,6.029,13.3009,4.60044,2470.624,2022-3-15T08:28:17Z
2022-03-15T06:29:45Z,42.805,6.029,13.3007,4.60044,2470.6,2022-3-15T08:31:21Z
2022-03-15T06:32:48Z,42.805,6.029,13.3006,4.60043,2470.637,2022-3-15T08:34:24Z
2022-03-15T06:35:51Z,42.805,6.029,13.3006,4.60042,2470.6,2022-3-15T08:37:27Z
2022-03-15T06:38:54Z,42.805,6.029,13.3008,4.60041,2470.624,2022-3-15T08:40:30Z
2022-03-15T06:41:57Z,42.805,6.029,13.3009,4.60042,2470.624,2022-3-15T08:43:33Z
2022-03-15T06:45:00Z,42.805,6.029,13.3008,4.60041,2470.624,2022-3-15T08:46:36Z
2022-03-15T06:48:03Z,42.805,6.029,13.3010,4.60042,2470.637,2022-3-15T08:49:39Z
2022-03-15T06:51:07Z,42.805,6.029,13.3009,4.60044,2470.624,2022-3-15T08:52:42Z
2022-03-15T06:54:10Z,42.805,6.029,13.3009,4.60042,2470.6,2022-3-15T08:55:46Z
2022-03-15T06:57:13Z,42.805,6.029,13.3007,4.60044,2470.637,2022-3-15T08:58:49Z
2022-03-15T07:00:16Z,42.805,6.029,13.3007,4.60044,2470.624,2022-3-15T09:01:52Z
2022-03-15T07:03:19Z,42.805,6.029,13.3009,4.60042,2470.614,2022-3-15T09:04:55Z
2022-03-15T07:06:22Z,42.805,6.029,13.3006,4.60044,2470.6,2022-3-15T09:07:58Z
2022-03-15T07:09:25Z,42.805,6.029,13.3006,4.60044,2470.577,2022-3-15T09:11:01Z
2022-03-15T07:12:28Z,42.805,6.029,13.3010,4.60043,2470.6,2022-3-15T09:14:04Z
2022-03-15T07:15:32Z,42.805,6.029,13.3009,4.60044,2470.577,2022-3-15T09:17:07Z
2022-03-15T07:18:35Z,42.805,6.029,13.3010,4.60043,2470.646,2022-3-15T09:20:10Z
2022-03-15T07:21:38Z,42.805,6.029,13.3005,4.60045,2470.591,2022-3-15T09:23:14Z
2022-03-15T07:24:41Z,42.805,6.029,13.3008,4.60044,2470.6,2022-3-15T09:26:17Z
2022-03-15T07:27:44Z,42.805,6.029,13.3012,4.60044,2470.614,2022-3-15T09:29:20Z
2022-03-15T07:30:47Z,42.805,6.029,13.3006,4.60042,2470.6,2022-3-15T09:32:23Z
2022-03-15T07:33:50Z,42.805,6.029,13.3007,4.60044,2470.624,2022-3-15T09:35:26Z
2022-03-15T07:36:53Z,42.805,6.029,13.3009,4.60044,2470.614,2022-3-15T09:38:29Z
2022-03-15T07:39:57Z,42.805,6.029,13.3011,4.60044,2470.6,2022-3-15T09:41:32Z
2022-03-15T07:43:00Z,42.805,6.029,13.3010,4.60044,2470.614,2022-3-15T09:44:36Z
2022-03-15T07:46:03Z,42.805,6.029,13.3013,4.60044,2470.614,2022-3-15T09:47:39Z
2022-03-15T07:49:06Z,42.805,6.029,13.3009,4.60044,2470.637,2022-3-15T09:50:42Z
2022-03-15T07:52:09Z,42.805,6.029,13.3014,4.60044,2470.553,2022-3-15T09:53:45Z
2022-03-15T07:55:12Z,42.805,6.029,13.3009,4.60044,2470.577,2022-3-15T09:56:48Z
2022-03-15T07:58:15Z,42.805,6.029,13.3014,4.60044,2470.553,2022-3-15T09:59:51Z
2022-03-15T08:01:18Z,42.805,6.029,13.3015,4.60046,2470.6,2022-3-15T10:02:54Z
2022-03-15T08:04:22Z,42.805,6.029,13.3014,4.60045,2470.577,2022-3-15T10:05:57Z
2022-03-15T08:07:25Z,42.805,6.029,13.3011,4.60047,2470.577,2022-3-15T10:09:00Z
2022-03-15T08:10:28Z,42.805,6.029,13.3012,4.60046,2470.567,2022-3-15T10:12:04Z
2022-03-15T08:13:31Z,42.805,6.029,13.3010,4.60047,2470.577,2022-3-15T10:15:07Z
2022-03-15T08:16:34Z,42.805,6.029,13.3013,4.60046,2470.577,2022-3-15T10:18:10Z
2022-03-15T08:19:37Z,42.805,6.029,13.3012,4.60051,2470.553,2022-3-15T10:21:13Z
2022-03-15T08:22:40Z,42.805,6.029,13.3011,4.60052,2470.591,2022-3-15T10:24:16Z
2022-03-15T08:25:43Z,42.805,6.029,13.3013,4.60050,2470.577,2022-3-15T10:27:19Z
2022-03-15T08:28:47Z,42.805,6.029,13.3013,4.60045,2470.577,2022-3-15T10:30:22Z
2022-03-15T08:31:50Z,42.805,6.029,13.3010,4.60047,2470.553,2022-3-15T10:33:26Z
2022-03-15T08:34:53Z,42.805,6.029,13.3010,4.60045,2470.591,2022-3-15T10:36:29Z
2022-03-15T08:37:56Z,42.805,6.029,13.3013,4.60049,2470.567,2022-3-15T10:39:32Z
2022-03-15T08:40:59Z,42.805,6.029,13.3011,4.60047,2470.577,2022-3-15T10:42:35Z
2022-03-15T08:44:02Z,42.805,6.029,13.3011,4.60045,2470.577,2022-3-15T10:45:38Z
2022-03-15T08:47:05Z,42.805,6.029,13.3014,4.60049,2470.577,2022-3-15T10:48:41Z
2022-03-15T08:50:08Z,42.805,6.029,13.3015,4.60046,2470.544,2022-3-15T10:51:44Z
2022-03-15T08:53:12Z,42.805,6.029,13.3015,4.60046,2470.544,2022-3-15T10:54:47Z
2022-03-15T08:56:15Z,42.805,6.029,13.3011,4.60050,2470.53,2022-3-15T10:57:51Z
2022-03-15T08:59:18Z,42.805,6.029,13.3014,4.60050,2470.53,2022-3-15T11:00:54Z
2022-03-15T09:02:21Z,42.805,6.029,13.3013,4.60051,2470.544,2022-3-15T11:03:57Z
2022-03-15T09:05:24Z,42.805,6.029,13.3015,4.60052,2470.577,2022-3-15T11:07:00Z
2022-03-15T09:08:27Z,42.805,6.029,13.3015,4.60046,2470.553,2022-3-15T11:10:03Z
2022-03-15T09:11:30Z,42.805,6.029,13.3015,4.60049,2470.614,2022-3-15T11:13:06Z
2022-03-15T09:14:33Z,42.805,6.029,13.3014,4.60046,2470.53,2022-3-15T11:16:09Z
2022-03-15T09:17:37Z,42.805,6.029,13.3014,4.60052,2470.507,2022-3-15T11:19:12Z
2022-03-15T09:20:40Z,42.805,6.029,13.3014,4.60049,2470.544,2022-3-15T11:22:16Z
2022-03-15T09:23:43Z,42.805,6.029,13.3011,4.60049,2470.544,2022-3-15T11:25:19Z
2022-03-15T09:26:46Z,42.805,6.029,13.3015,4.60049,2470.553,2022-3-15T11:28:22Z
2022-03-15T09:29:49Z,42.805,6.029,13.3013,4.60052,2470.507,2022-3-15T11:31:25Z
2022-03-15T09:32:52Z,42.805,6.029,13.3014,4.60052,2470.567,2022-3-15T11:34:28Z
2022-03-15T09:35:55Z,42.805,6.029,13.3014,4.60051,2470.53,2022-3-15T11:37:31Z
2022-03-15T09:38:58Z,42.805,6.029,13.3014,4.60047,2470.53,2022-3-15T11:40:34Z
2022-03-15T09:42:02Z,42.805,6.029,13.3014,4.60049,2470.53,2022-3-15T11:43:37Z
2022-03-15T09:45:05Z,42.805,6.029,13.3016,4.60051,2470.53,2022-3-15T11:46:41Z
2022-03-15T09:48:08Z,42.805,6.029,13.3015,4.60050,2470.507,2022-3-15T11:49:44Z
2022-03-15T09:51:11Z,42.805,6.029,13.3015,4.60049,2470.52,2022-3-15T11:52:47Z
2022-03-15T09:54:14Z,42.805,6.029,13.3014,4.60049,2470.507,2022-3-15T11:55:50Z
2022-03-15T09:57:17Z,42.805,6.029,13.3015,4.60050,2470.474,2022-3-15T11:58:53Z
2022-03-15T10:00:20Z,42.805,6.029,13.3017,4.60050,2470.52,2022-3-15T12:01:56Z
2022-03-15T10:03:23Z,42.805,6.029,13.3019,4.60052,2470.497,2022-3-15T12:04:59Z
2022-03-15T10:06:27Z,42.805,6.029,13.3017,4.60051,2470.474,2022-3-15T12:08:02Z
2022-03-15T10:09:30Z,42.805,6.029,13.3018,4.60052,2470.507,2022-3-15T12:11:06Z
2022-03-15T10:12:33Z,42.805,6.029,13.3018,4.60049,2470.474,2022-3-15T12:14:09Z
2022-03-15T10:15:36Z,42.805,6.029,13.3013,4.60049,2470.497,2022-3-15T12:17:12Z
2022-03-15T10:18:39Z,42.805,6.029,13.3018,4.60049,2470.46,2022-3-15T12:20:15Z
2022-03-15T10:21:42Z,42.805,6.029,13.3014,4.60050,2470.474,2022-3-15T12:23:18Z
2022-03-15T10:24:45Z,42.805,6.029,13.3013,4.60052,2470.474,2022-3-15T12:26:21Z
2022-03-15T10:27:48Z,42.805,6.029,13.3019,4.60049,2470.474,2022-3-15T12:29:24Z
2022-03-15T10:30:52Z,42.805,6.029,13.3015,4.60049,2470.46,2022-3-15T12:32:27Z
2022-03-15T10:33:55Z,42.805,6.029,13.3014,4.60050,2470.46,2022-3-15T12:35:31Z
2022-03-15T10:36:58Z,42.805,6.029,13.3014,4.60053,2470.46,2022-3-15T12:38:34Z
2022-03-15T10:40:01Z,42.805,6.029,13.3015,4.60049,2470.474,2022-3-15T12:41:37Z
2022-03-15T10:43:04Z,42.805,6.029,13.3015,4.60052,2470.437,2022-3-15T12:44:40Z
2022-03-15T10:46:07Z,42.805,6.029,13.3018,4.60050,2470.45,2022-3-15T12:47:43Z
2022-03-15T10:49:10Z,42.805,6.029,13.3015,4.60052,2470.45,2022-3-15T12:50:46Z
2022-03-15T10:52:14Z,42.805,6.029,13.3018,4.60049,2470.437,2022-3-15T12:53:49Z
2022-03-15T10:55:17Z,42.805,6.029,13.3015,4.60050,2470.45,2022-3-15T12:56:53Z
2022-03-15T10:58:20Z,42.805,6.029,13.3014,4.60050,2470.474,2022-3-15T12:59:56Z
2022-03-15T11:01:23Z,42.805,6.029,13.3012,4.60049,2470.437,2022-3-15T13:02:59Z
2022-03-15T11:04:26Z,42.805,6.029,13.3012,4.60049,2470.427,2022-3-15T13:06:02Z
2022-03-15T11:07:29Z,42.805,6.029,13.3017,4.60049,2470.46,2022-3-15T13:09:05Z
2022-03-15T11:10:32Z,42.805,6.029,13.3014,4.60051,2470.413,2022-3-15T13:12:08Z
2022-03-15T11:13:35Z,42.805,6.029,13.3014,4.60048,2470.46,2022-3-15T13:15:11Z
2022-03-15T11:16:39Z,42.805,6.029,13.3012,4.60049,2470.437,2022-3-15T13:18:14Z
2022-03-15T11:19:42Z,42.805,6.029,13.3014,4.60048,2470.413,2022-3-15T13:21:18Z
2022-03-15T11:22:45Z,42.805,6.029,13.3011,4.60049,2470.437,2022-3-15T13:24:21Z
2022-03-15T11:25:48Z,42.805,6.029,13.3016,4.60047,2470.413,2022-3-15T13:27:24Z
2022-03-15T11:28:51Z,42.805,6.029,13.3015,4.60051,2470.413,2022-3-15T13:30:27Z
2022-03-15T11:31:54Z,42.805,6.029,13.3013,4.60046,2470.45,2022-3-15T13:33:30Z
2022-03-15T11:34:57Z,42.805,6.029,13.3014,4.60046,2470.464,2022-3-15T13:36:33Z
2022-03-15T11:38:00Z,42.805,6.029,13.3011,4.60047,2470.427,2022-3-15T13:39:36Z
2022-03-15T11:41:04Z,42.805,6.029,13.3014,4.60046,2470.427,2022-3-15T13:42:39Z
2022-03-15T11:44:07Z,42.805,6.029,13.3017,4.60050,2470.45,2022-3-15T13:45:43Z
2022-03-15T11:47:10Z,42.805,6.029,13.3012,4.60046,2470.39,2022-3-15T13:48:46Z
2022-03-15T11:50:13Z,42.805,6.029,13.3014,4.60048,2470.45,2022-3-15T13:51:49Z
2022-03-15T11:53:16Z,42.805,6.029,13.3015,4.60048,2470.413,2022-3-15T13:54:52Z
2022-03-15T11:56:19Z,42.805,6.029,13.3018,4.60050,2470.413,2022-3-15T13:57:55Z
2022-03-15T11:59:22Z,42.805,6.029,13.3014,4.60049,2470.404,2022-3-15T14:00:58Z
2022-03-15T12:02:25Z,42.805,6.029,13.3014,4.60047,2470.39,2022-3-15T14:04:01Z
2022-03-15T12:05:29Z,42.805,6.029,13.3016,4.60051,2470.413,2022-3-15T14:07:04Z
2022-03-15T12:08:32Z,42.805,6.029,13.3015,4.60047,2470.39,2022-3-15T14:10:08Z
2022-03-15T12:11:35Z,42.805,6.029,13.3020,4.60047,2470.39,2022-3-15T14:13:11Z
2022-03-15T12:14:38Z,42.805,6.029,13.3015,4.60049,2470.427,2022-3-15T14:16:14Z
2022-03-15T12:17:41Z,42.805,6.029,13.3012,4.60048,2470.427,2022-3-15T14:19:17Z
2022-03-15T12:20:44Z,42.805,6.029,13.3015,4.60049,2470.404,2022-3-15T14:22:20Z
2022-03-15T12:23:47Z,42.805,6.029,13.3014,4.60052,2470.39,2022-3-15T14:25:23Z
2022-03-15T12:26:50Z,42.805,6.029,13.3014,4.60049,2470.39,2022-3-15T14:28:26Z
2022-03-15T12:29:54Z,42.805,6.029,13.3015,4.60049,2470.366,2022-3-15T14:31:29Z
2022-03-15T12:32:57Z,42.805,6.029,13.3013,4.60049,2470.366,2022-3-15T14:34:33Z
2022-03-15T12:36:00Z,42.805,6.029,13.3016,4.60051,2470.366,2022-3-15T14:37:36Z
2022-03-15T12:39:03Z,42.805,6.029,13.3016,4.60049,2470.38,2022-3-15T14:40:39Z
2022-03-15T12:42:06Z,42.805,6.029,13.3015,4.60049,2470.39,2022-3-15T14:43:42Z
2022-03-15T12:45:09Z,42.805,6.029,13.3017,4.60049,2470.39,2022-3-15T14:46:45Z
2022-03-15T12:48:12Z,42.805,6.029,13.3019,4.60050,2470.357,2022-3-15T14:49:48Z
2022-03-15T12:51:15Z,42.805,6.029,13.3013,4.60049,2470.366,2022-3-15T14:52:51Z
2022-03-15T12:54:19Z,42.805,6.029,13.3014,4.60049,2470.39,2022-3-15T14:55:54Z
2022-03-15T12:57:22Z,42.805,6.029,13.3019,4.60049,2470.343,2022-3-15T14:58:58Z
2022-03-15T13:00:25Z,42.805,6.029,13.3020,4.60048,2470.39,2022-3-15T15:02:01Z
2022-03-15T13:03:28Z,42.805,6.029,13.3011,4.60049,2470.39,2022-3-15T15:05:04Z
2022-03-15T13:06:31Z,42.805,6.029,13.3018,4.60052,2470.404,2022-3-15T15:08:07Z
2022-03-15T13:09:34Z,42.805,6.029,13.3019,4.60049,2470.343,2022-3-15T15:11:10Z
2022-03-15T13:12:37Z,42.805,6.029,13.3015,4.60049,2470.343,2022-3-15T15:14:13Z
2022-03-15T13:15:40Z,42.805,6.029,13.3016,4.60055,2470.366,2022-3-15T15:17:16Z
2022-03-15T13:18:44Z,42.805,6.029,13.3015,4.60054,2470.366,2022-3-15T15:20:19Z
2022-03-15T13:21:47Z,42.805,6.029,13.3021,4.60049,2470.38,2022-3-15T15:23:23Z
2022-03-15T13:24:50Z,42.805,6.029,13.3017,4.60053,2470.39,2022-3-15T15:26:26Z
2022-03-15T13:27:53Z,42.805,6.029,13.3017,4.60050,2470.366,2022-3-15T15:29:29Z
2022-03-15T13:30:56Z,42.805,6.029,13.3016,4.60054,2470.343,2022-3-15T15:32:32Z
2022-03-15T13:33:59Z,42.805,6.029,13.3015,4.60050,2470.366,2022-3-15T15:35:35Z
2022-03-15T13:37:02Z,42.805,6.029,13.3015,4.60049,2470.357,2022-3-15T15:38:38Z
2022-03-15T13:40:05Z,42.805,6.029,13.3013,4.60050,2470.343,2022-3-15T15:41:41Z
2022-03-15T13:43:09Z,42.805,6.029,13.3016,4.60053,2470.404,2022-3-15T15:44:44Z
2022-03-15T13:46:12Z,42.805,6.029,13.3021,4.60051,2470.38,2022-3-15T15:47:48Z
2022-03-15T13:49:15Z,42.805,6.029,13.3016,4.60051,2470.38,2022-3-15T15:50:51Z
2022-03-15T13:52:18Z,42.805,6.029,13.3018,4.60052,2470.39,2022-3-15T15:53:54Z
2022-03-15T13:55:21Z,42.805,6.029,13.3017,4.60052,2470.38,2022-3-15T15:56:57Z
2022-03-15T13:58:24Z,42.805,6.029,13.3015,4.60055,2470.357,2022-3-15T16:00:00Z
2022-03-15T14:01:27Z,42.805,6.029,13.3016,4.60052,2470.39,2022-3-15T16:03:03Z
2022-03-15T14:04:30Z,42.805,6.029,13.3016,4.60052,2470.366,2022-3-15T16:06:06Z
2022-03-15T14:07:34Z,42.805,6.029,13.3018,4.60054,2470.404,2022-3-15T16:09:09Z
2022-03-15T14:10:37Z,42.805,6.029,13.3016,4.60051,2470.343,2022-3-15T16:12:13Z
2022-03-15T14:13:40Z,42.805,6.029,13.3017,4.60052,2470.366,2022-3-15T16:15:16Z
2022-03-15T14:16:43Z,42.805,6.029,13.3021,4.60051,2470.38,2022-3-15T16:18:19Z
2022-03-15T14:19:46Z,42.805,6.029,13.3019,4.60054,2470.404,2022-3-15T16:21:22Z
2022-03-15T14:22:49Z,42.805,6.029,13.3018,4.60057,2470.366,2022-3-15T16:24:25Z
2022-03-15T14:25:52Z,42.805,6.029,13.3019,4.60054,2470.39,2022-3-15T16:27:28Z
2022-03-15T14:28:55Z,42.805,6.029,13.3017,4.60057,2470.39,2022-3-15T16:30:31Z
2022-03-15T14:31:59Z,42.805,6.029,13.3019,4.60052,2470.39,2022-3-15T16:33:34Z
2022-03-15T14:35:02Z,42.805,6.029,13.3015,4.60054,2470.39,2022-3-15T16:36:38Z
2022-03-15T14:38:05Z,42.805,6.029,13.3016,4.60054,2470.437,2022-3-15T16:39:41Z
2022-03-15T14:41:08Z,42.805,6.029,13.3022,4.60057,2470.366,2022-3-15T16:42:44Z
2022-03-15T14:44:11Z,42.805,6.029,13.3018,4.60056,2470.39,2022-3-15T16:45:47Z
2022-03-15T14:47:14Z,42.805,6.029,13.3015,4.60051,2470.404,2022-3-15T16:48:50Z
2022-03-15T14:50:17Z,42.805,6.029,13.3019,4.60052,2470.404,2022-3-15T16:51:53Z
2022-03-15T14:53:20Z,42.805,6.029,13.3020,4.60052,2470.404,2022-3-15T16:54:56Z
2022-03-15T14:56:24Z,42.805,6.029,13.3020,4.60051,2470.39,2022-3-15T16:58:00Z
2022-03-15T14:59:27Z,42.805,6.029,13.3015,4.60050,2470.413,2022-3-15T17:01:03Z
2022-03-15T15:02:30Z,42.805,6.029,13.3019,4.60051,2470.413,2022-3-15T17:04:06Z
2022-03-15T15:05:33Z,42.805,6.029,13.3017,4.60052,2470.404,2022-3-15T17:07:09Z
2022-03-15T15:08:36Z,42.805,6.029,13.3019,4.60052,2470.437,2022-3-15T17:10:12Z
2022-03-15T15:11:39Z,42.805,6.029,13.3015,4.60051,2470.39,2022-3-15T17:13:15Z
2022-03-15T15:14:42Z,42.805,6.029,13.3019,4.60054,2470.437,2022-3-15T17:16:18Z